Satellite: PO-34
Catalog number: 25520
Epoch time:      06011.60474129
Element set:     367
Inclination:      028.4615 deg
RA of node:       358.5634 deg
Eccentricity:    0.0005118
Arg of perigee:   339.6814 deg
Mean anomaly:     020.3559 deg
Mean motion:   15.16583732 rev/day
Decay rate:       7.34e-06 rev/day^2
Epoch rev:           39825
Checksum:              303

Satellite: ISS
Catalog number: 25544
Epoch time:      06013.03503319
Element set:     144
Inclination:      051.6439 deg
RA of node:       265.2328 deg
Eccentricity:    0.0010781
Arg of perigee:   147.3724 deg
Mean anomaly:     289.3972 deg
Mean motion:   15.73969915 rev/day
Decay rate:     1.0469e-04 rev/day^2
Epoch rev:           40871
Checksum:              306

Satellite: OO-38
Catalog number: 26063
Epoch time:      06012.75052665
Element set:     520
Inclination:      100.1921 deg
RA of node:       275.8139 deg
Eccentricity:    0.0037040
Arg of perigee:   184.6735 deg
Mean anomaly:     175.4126 deg
Mean motion:   14.35750182 rev/day
Decay rate:        8.2e-07 rev/day^2
Epoch rev:           31236
Checksum:              275

Satellite: NO-45
Catalog number: 26932
Epoch time:      06012.83402592
Element set:     216
Inclination:      067.0575 deg
RA of node:       047.5099 deg
Eccentricity:    0.0005889
Arg of perigee:   291.5863 deg
Mean anomaly:     068.4624 deg
Mean motion:   14.29511287 rev/day
Decay rate:      -2.41e-06 rev/day^2
Epoch rev:           22376
Checksum:              318

Satellite: UWE-1
Catalog number: 28892
Epoch time:      06012.75872489
Element set:     275
Inclination:      098.1811 deg
RA of node:       273.3527 deg
Eccentricity:    0.0016646
Arg of perigee:   298.0605 deg
Mean anomaly:     061.8915 deg
Mean motion:   14.59290791 rev/day
Decay rate:       1.77e-06 rev/day^2
Epoch rev:            1130
Checksum:              320

Satellite: XI-V
Catalog number: 28895
Epoch time:      06012.75574893
Element set:     257
Inclination:      098.1848 deg
RA of node:       273.3766 deg
Eccentricity:    0.0017209
Arg of perigee:   298.2843 deg
Mean anomaly:     061.6614 deg
Mean motion:   14.59346916 rev/day
Decay rate:       1.86e-06 rev/day^2
Epoch rev:            1118
Checksum:              338

Satellite: NCUBE2
Catalog number: 28897
Epoch time:      06012.68082058
Element set:      14
Inclination:      098.1790 deg
RA of node:       273.3062 deg
Eccentricity:    0.0016527
Arg of perigee:   301.6359 deg
Mean anomaly:     058.3244 deg
Mean motion:   14.59500995 rev/day
Decay rate:       2.12e-06 rev/day^2
Epoch rev:             344
Checksum:              290

/EX



----
Via the keps mailing list at AMSAT.ORG courtesy of AMSAT-NA.
To unsubscribe, send "unsubscribe keps" to Majordomo@amsat.org

--- ViaMAIL!/WC v1.60d
 * Origin: Chowdanet (401-724-4410) telnet://chowdanet.com  (1:323/120)